Regional Weather Roundup
Issued by NWS Midland/Odessa, TX

Skip options and go directly to product.
Home | Oldest Version | Previous Version | Current Version | All | Graphics & Text | Save Text | Print | Product List | Glossary On

Skip product version selection by date and time.   
294
ASUS44 KMAF 232210
RWRMAF
MIDLAND AREA WEATHER ROUNDUP
NATIONAL WEATHER SERVICE MIDLAND TX
400 PM CST SUN NOV 23 2014

...IN SOUTHWEST TEXAS AND SOUTHEAST NEW MEXICO...

CITY           SKY/WX    TMP DP  RH WIND       PRES   REMARKS
ALPINE         SUNNY     65  21  18 W25G44    29.85R
ANDREWS        FAIR      67  23  18 NW29G38   29.66R
ARTESIA        NOT AVBL
BIG SPRING     CLOUDY    72  28  19 W24G38    29.66R
CARLSBAD       SUNNY     69  20  15 W28G39    29.69R
DRYDEN           N/A     80  25  13 W21G35    29.64S
FORT STOCKTON  SUNNY     71  24  17 W23G33    29.71R
GUAD PASS      PTSUNNY   57  21  24 SW40G56   29.78R
HOBBS          SUNNY     63  23  22 W37G44    29.69R
MARFA          SUNNY     63  25  23 W35G44    29.79F
MIDLAND AIRPK  SUNNY     71  22  16 NW23G32   29.65R
MIDLAND INTL   MOSUNNY   72  23  16 NW26G37   29.64S
ODESSA         SUNNY     71  19  14 NW28G39   29.66R
PECOS          SUNNY     71  26  18 W30G38    29.71R
PRESIDIO       FAIR      75  29  18 W16G28    29.76S
SEMINOLE       PTSUNNY   65  24  20 NW35G45   29.69R
SNYDER         MOSUNNY   65  33  29 N17G26    29.62R
WINK           SUNNY     72  19  13 NW28G37   29.66R
$$
...OTHER STATIONS IN TEXAS...

CITY           SKY/WX    TMP DP  RH WIND       PRES   REMARKS
ABILENE        SUNNY     69  33  26 NW22      29.57R
AMARILLO       CLOUDY    38  34  85 N14       29.73S WCI  30
AUSTIN         MOSUNNY   81  43  26 SW15      29.53R
BROWNSVILLE    SUNNY     83  54  36 S13       29.65R
CORPUS CHRISTI MOSUNNY   81  59  47 SW14      29.59F
DALLAS FTW     MOSUNNY   75  35  23 W18G35    29.41R
DEL RIO        SUNNY     82  37  20 W22       29.60S
EL PASO        MOSUNNY   63  22  20 W41G53    29.79F
HOUSTON INT    SUNNY     79  47  32 SW14G25   29.54R
LUBBOCK        MOSUNNY   49  30  48 N29G40    29.70R
SAN ANGELO     SUNNY     76  26  15 NW22G31   29.60R
SAN ANTONIO    MOSUNNY   81  42  25 W15       29.57S
WACO           SUNNY     78  39  24 W15       29.47R
WICHITA FALLS  NOT AVBL
$$
...OTHER LOCATIONS IN NEW MEXICO...

CITY           SKY/WX    TMP DP  RH WIND       PRES   REMARKS
ALAMAGORDO     MOSUNNY   61  14  16 NW26G37   29.80S
ALBUQUERQUE    MOSUNNY   45   4  18 NW25G39   29.90R WCI  36
CANNON AFB     FLURRIES  37  32  81 N25G32    29.81R WCI  25
CLOVIS         CLOUDY    39  28  65 N23G30    29.82R WCI  29
HOLLOMAN AFB   MOSUNNY   62  15  15 NW26G35   29.80R
ROSWELL        MOSUNNY   60  24  25 NW36G46   29.74R
RUIDOSO        MOSUNNY   41  16  36 NW20G43   29.84R WCI  32
SANTA FE       CLOUDY    42  20  41 N17       29.80R WCI  34
TRUTH OR CONSE SUNNY     57   2  11 NW23G38   29.84R
TUCUMCARI        N/A     37  34  89 SW8       29.81R WCI  31
$$

USA.gov is the U.S. government's official web portal to all federal, state and local government web resources and services.